Weather in Massa

Italy     44°02′06″N   10°08′22″E
temp.,
°C
wind,
m/s
gust,
m/s
humid.,
%
clouds,
%
prec.,
mm/h
press.,
hPa
HPBL,
m
17 may, tue
tue1723:00+16nnw11660 0.0 102112
02:00+15nne11655 0.0 102013
05:00+14nne116827 0.0 102017
08:00+17nne01600 0.0 1020169
11:00+21sw21515 0.0 1019681
14:00+23sw325299 0.0 1018804
17:00+21sw225793 0.0 1018586
20:00+18wsw117232 0.0 101776
18 may, wed
wed1823:00+16ne11775 0.0 101812
02:00+16ne11805 0.0 101815
05:00+16nne11810 0.0 101912
08:00+20ene01665 0.0 1020107
11:00+24sw22490 0.0 10201108
14:00+25wsw215130 0.4 10201114
17:00+23n116588 3.5 102047
20:00+20ne227412 4.4 102157
19 may, thu
thu1923:00+18ne338677 0.2 102247
02:00+17ne327443 0.3 102349
05:00+16ne33665 0.0 102347
08:00+20ne11565 0.0 102497
11:00+24sw214410 0.0 10241005
14:00+25sw22449 0.0 10241208
17:00+24sw21457 0.1 10231048
20:00+21wsw11607 0.1 102463
20 may, fri
fri2023:00+18n116732 0.0 102612
02:00+17nne117162 0.0 102611
05:00+16nne1175100 0.0 102612
08:00+19ssw116733 0.0 1027207
11:00+22sw2252100 0.0 1027775
14:00+23sw32485 0.0 1026868
17:00+22sw32545 0.0 1025684
20:00+18ssw12745 0.0 1025149
21 may, sat
sat2123:00+16ene11827 0.0 102528
02:00+15ne11835 0.0 102424
05:00+15ne118523 0.0 102325
08:00+18s11725 0.0 1023229
11:00+21sw22550 0.0 1022802
14:00+23ssw32515 0.0 1020870
17:00+22ssw32561 0.0 1019662
20:00+18ssw128068 0.0 1019165